Presure
164 173 185 190 181 190 190 191 190 179 184 184 177 185 171 183 185 182 174 137 144 153 188 161 198 150 203 182 200 207 202 197 196 197 200 206 207 207 223 221 218 224 232 248 214
131 204 176 192 187 189 125 156 177 194 193 189 194 174 176 180 187 182 186 186 188 188 184 158 135 133 203 194 192 199 193 196 196 157 199 198 212 198 222 219 217 232 217 238 239
161 186 144 172 164 191 184 183 138 194 189 171 176 187 188 183 189 189 165 148 188 181 190 155 186 191 198 186 195 203 181 191 195 202 199 195 218 208 223 207 228 222 219 229 238
140 125 150 114 180 140 208 196 181 150 135 189 130 187 182 188 185 186 188 184 188 173 190 193 199 198 190 187 184 192 175 189 188 197 196 212 206 208 215 222 213 220 215 225 234
196 199 215 156 152 182 153 173 182 165 205 185 182 207 221 229 191 203 192 181 182 206 201 203 199 196 196 186 182 193 182 193 191 193 193 197 195 218 201 221 211 213 215 215 223
178 138 134 185 162 165 168 165 185 175 168 190 190 200 191 193 193 199 181 182 192 207 208 133 162 202 192 188 186 182 193 183 182 187 189 211 207 199 216 204 210 222 229 219 229
151 208 208 145 193 215 195 215 213 203 215 199 183 179 173 188 202 189 230 178 196 166 189 205 201 175 192 191 191 190 177 194 182 189 209 203 204 217 205 215 213 218 222 227 237
211 205 218 187 197 195 152 187 193 198 198 177 205 211 187 209 182 199 195 224 209 204 192 193 190 196 194 174 195 188 189 184 180 197 190 197 201 207 215 206 214 210 219 231 242
202 210 197 211 212 171 200 207 169 169 203 179 197 195 170 158 210 211 196 187 219 205 201 195 183 197 205 190 188 187 191 189 192 191 195 198 201 196 204 218 211 216 220 231 168
224 211 219 207 210 225 195 190 190 188 210 167 212 159 199 202 188 208 187 200 184 200 200 199 190 190 189 194 183 187 196 187 181 192 205 198 186 210 197 202 204 220 117 126 274
225 214 215 212 212 217 225 211 214 206 209 200 182 187 199 203 199 207 205 208 195 195 187 187 191 191 191 186 187 183 194 184 185 188 204 215 215 200 210 220 212 79 214 234 295
228 217 218 181 220 227 229 213 220 219 190 215 213 212 207 213 214 220 213 205 216 234 210 228 224 199 201 201 194 194 192 189 198 207 230 206 218 214 208 217 215 215 240 237 268
228 229 232 239 251 233 240 235 230 223 222 201 218 208 210 221 208 199 230 215 211 230 218 224 227 224 207 209 208 204 213 213 198 219 205 208 210 215 207 210 137 234 226 264 253
237 241 269 294 292 279 274 263 233 232 228 218 207 218 219 205 219 230 239 233 243 234 217 215 219 214 215 216 216 206 206 216 212 207 202 212 218 170 209 220 222 215 232 249 257
267 281 271 259 285 274 254 277 253 283 258 234 229 214 223 221 244 240 222 243 239 226 219 226 215 215 219 216 221 211 66 207 205 203 205 221 236 202 200 213 212 236 266 272 376
278 278 277 277 263 270 267 269 273 271 269 252 266 254 255 247 245 237 182 243 236 228 226 220 226 214 218 211 212 208 207 205 211 215 207 167 133 223 214 208 231 238 301 267 395
264 265 257 265 255 260 256 257 256 260 259 262 261 266 261 258 262 179 241 236 229 233 226 225 218 234 223 226 227 220 214 218 220 213 223 210 113 87 124 246 260 252 275 293 357
254 259 260 247 256 260 252 261 264 261 255 260 243 240 248 249 251 247 238 236 230 228 225 226 216 229 230 225 221 223 225 231 231 228 231 227 239 67 72 245 243 230 237 356 297
253 251 249 258 265 264 265 258 256 259 273 261 256 247 259 238 230 251 248 247 245 233 211 231 165 238 229 229 221 221 221 221 225 233 228 226 223 229 239 255 263 268 268 385 287
253 249 248 252 257 260 270 260 256 265 272 265 270 149 253 254 248 253 249 253 258 256 251 252 242 240 228 225 229 221 220 221 224 231 235 235 241 245 248 271 283 254 313 361 281
266 310 325 325 321 327 332 338 351 356 366 340 263 260 264 274 263 259 158 142 197 255 82 192 223 231 199 237 234 232 235 238 241 246 251 249 246 253 262 261 242 256 373 322 270
318 317 314 303 306 315 403 407 410 397 394 404 350 360 271 269 260 269 89 263 95 254 251 250 249 244 242 241 238 98 235 244 242 245 251 262 265 268 268 286 261 397 334 287 260
308 303 302 304 291 398 386 379 375 373 370 376 383 354 412 413 415 301 267 99 278 263 252 254 258 144 120 240 236 238 237 246 246 257 261 275 288 296 284 263 392 339 288 250 228
301 292 289 397 368 359 357 358 361 366 362 362 368 373 384 406 414 418 418 320 220 264 267 265 276 194 272 261 256 252 257 260 267 274 282 287 251 262 284 374 363 273 260 242 235
287 292 381 349 341 339 350 350 348 346 349 360 365 369 371 439 427 385 404 390 349 311 306 284 281 273 226 278 210 259 261 263 264 265 273 268 278 283 386 361 295 252 245 249 235
289 369 351 332 325 338 341 343 337 325 340 340 347 353 415 409 409 415 387 371 381 368 366 337 385 379 362 272 271 273 279 285 291 295 387 373 169 97 366 322 260 241 233 235 226
337 351 334 325 332 350 360 344 344 347 345 344 342 375 382 391 390 392 392 388 387 384 367 377 367 375 386 379 348 206 110 364 374 385 392 162 353 357 321 288 251 242 227 241 239
Wind_Speed
60 62 68 67 66 70 73 73 75 73 75 77 76 76 76 77 75 76 75 76 78 78 78 76 76 68 68 68 64 60 58 61 69 62 62 59 58 51 50 42 44 46 46 42 43
62 63 66 70 72 74 65 69 76 76 77 77 74 77 78 79 79 80 78 79 78 80 81 72 64 69 69 72 62 61 60 66 70 63 62 61 60 48 52 48 48 44 47 45 37
71 67 58 73 65 76 78 79 69 78 81 81 81 82 79 82 82 83 77 80 83 82 85 71 79 69 71 75 72 64 62 67 69 69 64 63 68 54 55 46 50 46 46 40 38
55 63 64 57 65 56 74 79 79 62 65 83 70 85 84 85 87 85 83 85 87 83 89 88 76 72 76 77 75 68 65 70 67 71 65 75 58 52 53 61 42 44 39 46 43
64 70 68 79 64 81 69 71 71 71 81 77 75 81 70 70 93 85 87 86 85 78 81 71 74 75 71 76 74 75 71 72 72 72 68 59 52 74 51 55 42 41 43 48 50
77 55 61 69 72 66 70 78 84 86 79 86 83 82 83 85 81 83 83 87 85 80 75 67 78 73 76 79 79 76 76 72 64 71 67 76 75 47 76 49 51 59 64 49 58
78 76 76 65 73 79 81 83 84 84 80 90 88 88 87 94 82 89 73 83 84 79 83 81 78 76 78 81 80 80 70 79 72 72 78 62 60 75 62 72 68 60 62 62 73
80 80 80 81 81 82 79 85 78 86 87 84 85 79 84 86 87 85 86 74 82 85 87 87 86 83 83 68 83 83 80 78 64 83 72 43 67 76 76 65 71 58 62 70 74
82 87 85 86 87 84 87 90 89 80 88 76 87 87 89 65 82 79 87 91 79 84 87 90 85 85 83 84 86 83 83 77 86 78 72 45 67 67 71 79 65 62 62 63 37
89 88 92 95 93 91 91 91 92 88 91 86 87 71 86 87 92 89 91 85 92 89 88 88 86 79 85 89 83 78 84 83 73 83 84 61 64 78 59 59 57 64 32 36 66
87 89 92 96 93 91 94 101 103 98 99 93 87 89 92 92 89 90 88 87 92 89 91 87 78 84 91 90 81 72 87 73 85 74 80 86 65 62 76 78 66 24 59 69 57
94 94 99 82 99 96 95 100 106 100 90 98 101 95 98 99 94 96 95 92 91 86 92 89 88 92 98 101 96 90 84 84 97 95 92 74 74 78 68 76 62 63 71 62 48
99 101 106 108 101 95 97 99 103 105 99 102 102 97 99 99 93 97 99 95 94 89 90 89 82 95 99 99 100 94 97 92 86 91 72 71 56 73 68 73 43 74 56 61 50
94 98 94 84 83 92 88 94 98 103 100 102 103 105 101 95 93 100 99 94 88 87 93 90 87 88 91 91 94 91 94 93 86 83 74 76 69 65 78 77 65 54 56 53 49
91 85 82 81 71 81 85 85 90 81 93 102 104 98 103 99 98 89 90 88 83 89 93 87 89 94 92 90 94 87 4 85 82 74 60 88 74 51 72 60 54 69 72 53 41
74 72 75 72 76 75 72 76 75 70 69 86 82 88 90 93 90 90 59 85 85 88 89 88 91 92 95 94 93 94 91 82 88 86 45 72 46 66 68 76 64 62 66 43 39
73 74 76 73 78 78 79 80 80 77 76 73 76 77 83 86 87 60 87 87 88 90 86 89 87 92 94 95 99 102 99 99 99 88 95 92 32 11 19 84 74 63 50 42 44
76 76 78 80 81 81 79 78 80 81 84 83 72 75 82 79 82 85 86 89 93 92 89 89 85 89 92 93 95 95 98 102 102 98 94 88 82 5 7 62 50 46 41 39 53
81 82 83 86 85 86 86 85 86 86 84 83 85 81 84 72 72 86 91 92 95 96 81 94 49 93 93 97 95 93 94 94 91 92 77 71 59 64 67 72 66 63 40 42 60
85 87 86 87 87 84 86 84 85 91 90 84 87 49 88 90 88 88 90 89 90 91 89 88 84 88 93 92 97 95 95 93 87 87 90 83 82 84 76 72 61 41 38 47 64
87 79 74 77 81 81 79 80 78 79 78 79 85 84 90 99 95 98 43 47 68 89 16 61 73 82 65 102 104 103 102 98 99 102 97 85 75 82 75 57 40 42 44 51 64
71 73 73 80 81 79 52 48 48 48 51 48 71 71 86 97 92 92 30 104 30 91 92 88 89 85 86 96 98 27 92 93 90 95 94 91 82 82 67 69 42 40 40 53 61
70 74 78 79 77 51 50 48 49 47 50 50 49 45 43 45 50 92 89 33 104 98 87 92 99 48 37 95 95 94 93 95 89 96 94 92 85 76 59 44 36 41 45 63 55
68 74 78 53 52 49 47 44 44 45 45 48 46 47 45 40 44 45 61 84 72 92 93 89 96 53 103 105 104 101 98 97 94 91 87 75 50 50 53 37 42 49 55 64 64
70 71 52 53 52 48 45 42 41 40 39 40 37 41 41 23 34 36 49 63 67 89 94 100 95 88 68 91 65 89 87 79 79 75 74 69 61 61 43 48 57 59 64 61 67
67 54 50 51 50 47 45 43 42 43 39 40 36 38 19 22 28 27 45 54 59 64 67 76 60 62 65 87 87 87 87 93 88 80 63 55 21 21 49 58 66 65 66 67 67
62 51 49 50 48 47 43 44 42 40 35 35 37 20 20 18 22 27 32 37 44 52 59 59 59 57 53 49 45 31 3 62 65 61 61 17 39 50 60 67 70 72 70 70 73
Wind_Direction
262 261 261 263 262 264 266 266 266 266 267 269 268 272 268 272 272 274 272 265 264 267 281 275 286 272 287 281 285 292 289 288 284 289 291 297 298 299 313 310 307 305 312 306 282
265 262 263 261 260 263 267 264 266 269 268 269 269 269 271 272 274 274 277 277 279 280 279 275 271 271 285 285 287 288 289 287 287 282 294 290 301 293 311 310 305 315 303 302 290
262 263 267 263 266 263 262 265 268 267 266 267 268 270 270 270 273 273 269 266 277 278 280 276 281 280 282 284 287 287 286 287 288 294 296 293 302 306 309 301 310 314 308 320 303
276 261 279 267 263 265 263 263 264 267 264 267 267 268 269 270 268 270 272 273 276 275 278 277 276 276 279 284 286 287 284 285 290 294 296 300 302 307 308 310 309 312 306 313 302
265 273 267 274 274 260 264 265 266 262 265 266 267 265 264 266 266 266 267 272 273 268 270 267 270 273 274 280 282 286 285 286 291 294 298 299 301 306 300 312 306 308 309 304 300
271 268 269 268 261 271 272 273 261 264 266 265 265 267 269 268 266 267 267 269 269 267 264 267 273 268 273 277 281 283 279 289 286 292 291 297 304 301 304 307 305 308 314 301 311
279 268 264 276 263 266 261 263 263 259 264 263 266 267 270 269 268 268 261 268 267 271 271 265 264 279 273 274 276 277 281 284 287 288 289 301 298 296 305 307 309 311 314 315 313
273 269 270 267 262 258 263 260 264 259 259 265 261 262 265 262 269 265 269 263 262 263 266 267 271 270 272 275 272 278 280 282 287 287 292 296 300 301 302 307 306 308 313 314 312
273 273 271 269 264 267 261 263 270 270 261 271 258 258 269 273 262 262 263 269 266 264 264 267 271 268 266 273 273 277 275 284 285 287 289 296 301 301 303 303 305 311 313 313 302
272 270 271 268 268 271 262 262 261 260 261 272 264 269 263 264 266 264 266 261 270 266 264 264 272 273 276 266 274 278 277 282 284 285 288 296 291 296 299 302 301 310 288 286 306
273 270 269 270 268 270 265 262 259 261 262 263 263 263 264 264 262 268 265 264 265 265 267 268 269 274 269 274 277 279 278 283 283 287 289 285 290 298 297 299 302 260 302 304 302
278 274 273 272 271 271 265 262 262 258 267 262 262 261 263 264 266 268 264 263 267 264 262 260 257 265 267 268 272 273 276 279 278 277 281 285 291 293 296 296 301 304 306 299 290
276 276 273 274 274 270 268 262 261 261 258 264 259 261 263 264 264 267 269 265 265 263 263 261 259 256 260 262 264 268 268 270 275 276 285 289 292 292 296 294 283 300 301 302 281
277 277 277 277 278 270 268 264 262 262 260 259 266 265 264 266 267 270 268 265 264 261 261 262 261 261 259 260 263 267 269 270 272 279 284 287 290 269 294 294 294 290 300 290 277
282 280 279 278 281 275 268 271 265 267 261 261 263 264 266 266 266 264 264 261 256 257 259 258 261 263 263 262 263 263 212 273 274 279 282 280 283 285 286 290 286 305 303 285 252
282 280 279 275 276 275 272 271 270 266 262 260 259 259 258 262 262 263 259 256 255 255 257 258 257 260 260 263 265 266 271 273 274 275 274 251 269 289 289 288 295 298 299 280 243
277 276 276 273 274 271 271 270 270 269 265 259 257 255 254 256 256 254 254 256 257 256 257 257 260 257 261 261 262 263 268 269 271 277 278 279 248 264 312 289 294 297 289 280 223
279 276 274 276 273 268 270 268 268 264 263 264 261 257 257 256 254 253 254 253 256 257 258 259 262 263 259 260 262 265 266 267 270 271 273 278 283 239 299 290 290 277 269 258 218
278 276 277 275 272 270 269 269 268 265 261 259 261 267 263 259 255 253 254 253 252 255 257 258 257 257 259 260 263 266 267 269 272 274 277 278 280 285 289 290 290 291 273 231 216
283 281 281 281 280 279 276 275 273 270 267 266 257 258 262 260 261 257 256 255 255 252 253 253 252 253 257 261 262 264 267 270 272 274 275 277 280 284 284 289 291 270 253 220 213
285 285 284 284 282 282 281 279 275 273 272 266 261 259 260 257 255 254 245 251 256 253 245 254 249 251 250 256 258 261 263 264 266 271 273 277 282 283 286 279 256 262 227 210 210
290 287 286 285 287 289 286 282 278 275 273 269 263 258 253 256 259 257 239 254 256 258 256 256 256 253 253 256 259 253 264 266 268 271 275 277 282 282 282 281 268 218 214 203 210
290 288 286 289 293 291 286 282 279 275 272 270 267 261 259 250 246 252 253 244 254 256 256 255 254 260 248 256 260 263 267 268 270 271 273 276 277 277 272 264 226 204 203 206 210
290 288 292 301 296 292 288 284 277 273 270 271 269 266 262 258 250 235 226 247 251 254 255 255 254 255 255 256 259 262 264 265 268 270 270 272 265 271 270 227 197 192 196 204 209
290 293 305 300 295 297 293 284 279 273 272 269 268 266 264 250 244 241 227 228 239 248 251 255 257 258 256 258 260 261 263 267 266 267 267 269 269 268 221 195 186 190 196 201 207
296 307 303 296 296 297 290 284 279 276 272 272 269 270 267 229 247 243 231 231 231 234 239 248 246 245 249 259 260 261 263 262 263 265 235 240 265 284 203 187 187 195 200 201 205
310 305 304 298 300 295 287 281 277 271 268 265 266 246 253 234 233 235 236 233 234 236 240 242 250 253 252 251 247 238 216 240 242 240 229 212 223 200 187 182 190 195 207 204 204